Hourly Data Report for July 18, 2006

TORONTO CITY
ONTARIO

43°40'00.000" N
79°24'00.000" W
112.50 m
6158355
71508
XTO

Download Data

Hourly Data (July 2006)
Hourly Data Report for July 18, 2006
TIME
LST
Temp Definition
°C
Dew Point Definition
°C
Rel Hum Definition
%
Precip. Amount Definition
mm

Wind Dir Definition
10's deg

Wind Spd Definition
km/h
Visibility Definition
km
Stn Press Definition
kPa
Hmdx Definition


Wind Chill Definition


Weather Definition


00:00 23.0 18.5 76   LegendMM LegendMM   99.72 29   LegendNANA
01:00 22.8 18.2 75   LegendMM LegendMM   99.80 29   LegendNANA
02:00 24.5 17.4 65   LegendMM LegendMM   99.86 30   LegendNANA
03:00 23.4 18.3 73   LegendMM LegendMM   99.86 30   LegendNANA
04:00 22.7 18.1 75   LegendMM LegendMM   99.86 29   LegendNANA
05:00 22.3 17.0 72   LegendMM LegendMM   99.89 28   LegendNANA
06:00 22.5 16.3 68   LegendMM LegendMM   99.98 27   LegendNANA
07:00 23.2 16.0 64   LegendMM LegendMM   100.10 28   LegendNANA
08:00 23.9 16.3 62   LegendMM LegendMM   100.09 29   LegendNANA
09:00 24.5 16.8 62   LegendMM LegendMM   100.09 30   LegendNANA
10:00 25.0 17.3 62   LegendMM LegendMM   100.14 30   LegendNANA
11:00 25.7 17.6 61   LegendMM LegendMM   100.21 31   LegendNANA
12:00 27.2 17.0 54   LegendMM LegendMM   100.22 32   LegendNANA
13:00 26.4 17.4 58   LegendMM LegendMM   100.25 32   LegendNANA
14:00 28.2 18.7 56   LegendMM LegendMM   100.26 35   LegendNANA
15:00 28.0 18.2 55   LegendMM LegendMM   100.25 34   LegendNANA
16:00 27.7 17.1 52   LegendMM LegendMM   100.27 33   LegendNANA
17:00 27.2 15.5 49   LegendMM LegendMM   100.28 31   LegendNANA
18:00 27.3 14.6 46   LegendMM LegendMM   100.29 31   LegendNANA
19:00 26.4 16.0 53   LegendMM LegendMM   100.34 31   LegendNANA
20:00 24.9 14.7 53   LegendMM LegendMM   100.39 29   LegendNANA
21:00 23.7 12.4 49   LegendMM LegendMM   100.45 26   LegendNANA
22:00 22.6 13.5 56   LegendMM LegendMM   100.50 26   LegendNANA
23:00 21.7 13.9 61   LegendMM LegendMM   100.53 25   LegendNANA

Notes on Data Quality.

Legend

  • E = Estimated
  • M = Missing
  • NA = Not Available*
  • [empty] = Indicates an unobserved value
Date modified: